Fairhope, AL

12:34 AM CST on February 12, 2016 (GMT -0600)
Fairhope

Weather History for KCQF - July, 2012

Change the Weather History Date:

Tuesday, July 24, 2012

  Actual Average (KBFM) Record (KBFM)
Temperature  
Mean Temperature 85 °F -  
Max Temperature 93 °F 87 °F 97 °F (2015)
Min Temperature 77 °F 72 °F 71 °F (2000)
Cooling Degree Days 20    
Growing Degree Days 35 (Base 50)    
Moisture  
Dew Point 77 °F    
Average Humidity 85    
Maximum Humidity 100    
Minimum Humidity 59    
Precipitation  
Precipitation 0.19 in - - ()
Sea Level Pressure  
Sea Level Pressure 30.08 in    
Wind  
Wind Speed 2 mph (WNW)    
Max Wind Speed 12 mph    
Max Gust Speed -    
Visibility 9 miles    
Events Rain    
Averages and records for this station are not official NWS values.
T = Trace of Precipitation, MM = Missing Value Source: NWS Daily Summary

Daily Weather History Graph

Daily Weather History Graph

Search for Another Location

Airport or City:

Trip Planner

Search our weather history database for the weather conditions in past years. The results will help you decide how hot, cold, wet, or windy it might be!

Date:

Astronomy

Jul. 24, 2012 Rise Set
Actual Time 6:05 AM CDT 7:50 PM CDT
Civil Twilight 5:38 AM CDT 8:17 PM CDT
Nautical Twilight 5:06 AM CDT 8:48 PM CDT
Astronomical Twilight 4:32 AM CDT 9:22 PM CDT
Moon 11:31 AM CDT (7/24) 11:11 PM CDT (7/24)
Length of Visible Light 14h 38m
Length of Day
13h 45m
Waxing Crescent, 32% of the Moon is Illuminated
Jul 24
Waxing Crescent
Jul 26
First Quarter
Aug 1
Full
Aug 9
Last Quarter
Aug 17
New

Hourly Weather History & Observations

Time (CDT) Temp. Heat Index Dew Point Humidity Pressure Visibility Wind Dir Wind Speed Gust Speed Precip Events Conditions
12:15 AM 78.8 °F - 77.0 °F 94% 30.11 in 10.0 mi Calm Calm - N/A   Clear
12:35 AM 78.8 °F - 77.0 °F 94% 30.11 in 7.0 mi Calm Calm - N/A   Clear
12:55 AM 77.0 °F - 77.0 °F 100% 30.10 in 7.0 mi Calm Calm - N/A   Clear
1:15 AM 78.8 °F - 77.0 °F 94% 30.10 in 7.0 mi Calm Calm - N/A   Clear
1:35 AM 78.8 °F - 77.0 °F 94% 30.10 in 10.0 mi Calm Calm - N/A   Clear
1:55 AM 77.0 °F - 77.0 °F 100% 30.10 in 7.0 mi Calm Calm - N/A   Clear
2:15 AM 78.8 °F - 77.0 °F 94% 30.09 in 10.0 mi Calm Calm - N/A   Clear
2:35 AM 77.0 °F - 77.0 °F 100% 30.10 in 10.0 mi Calm Calm - N/A   Scattered Clouds
2:55 AM 78.8 °F - 77.0 °F 94% 30.10 in 10.0 mi Calm Calm - N/A   Mostly Cloudy
3:15 AM 78.8 °F - 77.0 °F 94% 30.10 in 10.0 mi Calm Calm - N/A   Mostly Cloudy
3:35 AM 78.8 °F - 77.0 °F 94% 30.10 in 10.0 mi Calm Calm - N/A   Scattered Clouds
4:15 AM 80.6 °F 87.1 °F 77.0 °F 89% 30.09 in 10.0 mi Calm Calm - N/A   Clear
4:35 AM 80.6 °F 87.1 °F 77.0 °F 89% 30.10 in 10.0 mi Calm Calm - N/A   Clear
4:55 AM 80.6 °F 87.1 °F 77.0 °F 89% 30.11 in 10.0 mi Calm Calm - N/A   Clear
5:15 AM 78.8 °F - 77.0 °F 94% 30.11 in 10.0 mi Calm Calm - N/A   Clear
5:55 AM 78.8 °F - 77.0 °F 94% 30.12 in 10.0 mi Calm Calm - N/A   Mostly Cloudy
6:15 AM 78.8 °F - 77.0 °F 94% 30.12 in 10.0 mi Calm Calm - N/A   Scattered Clouds
6:35 AM 80.6 °F 87.1 °F 77.0 °F 89% 30.12 in 10.0 mi Calm Calm - N/A   Clear
6:55 AM 80.6 °F 88.1 °F 78.8 °F 94% 30.13 in 7.0 mi Calm Calm - N/A   Clear
7:15 AM 80.6 °F 88.1 °F 78.8 °F 94% 30.13 in 10.0 mi WNW 3.5 mph - N/A   Clear
7:35 AM 82.4 °F 92.4 °F 78.8 °F 89% 30.13 in 10.0 mi Calm Calm - N/A   Clear
7:55 AM 82.4 °F 92.4 °F 78.8 °F 89% 30.14 in 7.0 mi WNW 4.6 mph - N/A   Clear
8:15 AM 84.2 °F 94.1 °F 77.0 °F 79% 30.14 in 7.0 mi WNW 5.8 mph - N/A   Clear
8:35 AM 86.0 °F 95.1 °F 75.2 °F 70% 30.14 in 10.0 mi WNW 5.8 mph - N/A   Clear
9:15 AM 86.0 °F 93.4 °F 73.4 °F 66% 30.13 in 10.0 mi WNW 6.9 mph - N/A   Clear
9:35 AM 86.0 °F 96.9 °F 77.0 °F 74% 30.13 in 10.0 mi WNW 5.8 mph - N/A   Clear
9:55 AM 87.8 °F 99.7 °F 77.0 °F 70% 30.13 in 7.0 mi NW 5.8 mph - N/A   Clear
10:15 AM 87.8 °F 99.7 °F 77.0 °F 70% 30.13 in 10.0 mi NW 8.1 mph - N/A   Clear
10:35 AM 87.8 °F 99.7 °F 77.0 °F 70% 30.13 in 10.0 mi NW 8.1 mph - N/A   Scattered Clouds
10:55 AM 87.8 °F 99.7 °F 77.0 °F 70% 30.12 in 10.0 mi NW 6.9 mph - N/A   Scattered Clouds
11:35 AM 89.6 °F 104.7 °F 78.8 °F 70% 30.11 in 10.0 mi WNW 6.9 mph - N/A   Clear
11:55 AM 89.6 °F 104.7 °F 78.8 °F 70% 30.11 in 10.0 mi WNW 6.9 mph - N/A   Clear
12:15 PM 91.4 °F 105.1 °F 77.0 °F 63% 30.10 in 7.0 mi NW 6.9 mph - N/A   Clear
12:35 PM 91.4 °F 105.1 °F 77.0 °F 63% 30.09 in 10.0 mi NW 6.9 mph - N/A   Clear
12:55 PM 91.4 °F 102.5 °F 75.2 °F 59% 30.09 in 7.0 mi West 6.9 mph - N/A   Clear
1:15 PM 91.4 °F 105.1 °F 77.0 °F 63% 30.08 in 7.0 mi NW 9.2 mph - N/A   Clear
1:35 PM 91.4 °F 102.5 °F 75.2 °F 59% 30.07 in 7.0 mi NW 6.9 mph - N/A   Clear
1:55 PM 91.4 °F 105.1 °F 77.0 °F 63% 30.06 in 7.0 mi West 6.9 mph - N/A   Clear
2:15 PM 91.4 °F 105.1 °F 77.0 °F 63% 30.05 in 7.0 mi WNW 5.8 mph - N/A   Clear
2:35 PM 93.2 °F 107.2 °F 77.0 °F 59% 30.04 in 10.0 mi West 5.8 mph - N/A   Clear
2:55 PM 91.4 °F 105.1 °F 77.0 °F 63% 30.05 in 7.0 mi South 3.5 mph - N/A   Clear
3:15 PM 86.0 °F 95.1 °F 75.2 °F 70% 30.06 in 7.0 mi SE 8.1 mph - N/A Rain Light Rain
3:35 PM 80.6 °F 87.1 °F 77.0 °F 89% 30.07 in 3.0 mi ENE 6.9 mph - 0.06 in Rain Heavy Rain
3:55 PM 78.8 °F - 77.0 °F 94% 30.06 in 3.0 mi North 11.5 mph - 0.19 in Rain Rain
4:15 PM 77.0 °F - 73.4 °F 89% 30.06 in 10.0 mi NW 5.8 mph - N/A Rain Light Rain
4:35 PM 78.8 °F - 75.2 °F 89% 30.05 in 10.0 mi NW 10.4 mph - N/A Rain Light Rain
4:55 PM 78.8 °F - 75.2 °F 89% 30.04 in 10.0 mi West 4.6 mph - N/A   Clear
5:15 PM 78.8 °F - 77.0 °F 94% 30.04 in 10.0 mi Calm Calm - N/A   Clear
5:35 PM 78.8 °F - 77.0 °F 94% 30.03 in 10.0 mi Calm Calm - N/A   Clear
5:55 PM 78.8 °F - 77.0 °F 94% 30.03 in 10.0 mi West 3.5 mph - N/A   Light Drizzle
6:15 PM 80.6 °F 87.1 °F 77.0 °F 89% 30.02 in 10.0 mi Calm Calm - N/A   Clear
6:35 PM 80.6 °F 87.1 °F 77.0 °F 89% 30.02 in 10.0 mi West 6.9 mph - N/A   Clear
6:55 PM 80.6 °F 87.1 °F 77.0 °F 89% 30.02 in 10.0 mi WNW 4.6 mph - N/A   Clear
7:15 PM 80.6 °F 87.1 °F 77.0 °F 89% 30.02 in 10.0 mi Calm Calm - N/A   Clear
7:35 PM 80.6 °F 87.1 °F 77.0 °F 89% 30.02 in 10.0 mi Calm Calm - N/A   Clear
8:15 PM 78.8 °F - 77.0 °F 94% 30.02 in 10.0 mi Calm Calm - N/A   Clear
8:35 PM 78.8 °F - 77.0 °F 94% 30.02 in 7.0 mi WNW 3.5 mph - N/A   Scattered Clouds
8:55 PM 78.8 °F - 77.0 °F 94% 30.02 in 10.0 mi Calm Calm - N/A   Clear
9:15 PM 78.8 °F - 77.0 °F 94% 30.03 in 10.0 mi Calm Calm - N/A   Clear
9:35 PM 78.8 °F - 77.0 °F 94% 30.03 in 10.0 mi Calm Calm - N/A   Clear
9:55 PM 78.8 °F - 77.0 °F 94% 30.04 in 10.0 mi Calm Calm - N/A   Clear
10:15 PM 78.8 °F - 77.0 °F 94% 30.04 in 10.0 mi Calm Calm - N/A   Clear
10:35 PM 78.8 °F - 77.0 °F 94% 30.04 in 10.0 mi Calm Calm - N/A   Clear
11:15 PM 78.8 °F - 77.0 °F 94% 30.04 in 10.0 mi Calm Calm - N/A   Clear
11:35 PM 77.0 °F - 77.0 °F 100% 30.04 in 7.0 mi Calm Calm - N/A   Clear
11:55 PM 77.0 °F - 77.0 °F 100% 30.04 in 10.0 mi Calm Calm - N/A   Clear